Location: Vista Encantada
(35.1109°N, 106.5681°W)
Time: 13:42:40
(UTC+00:00)

Daily predictions for brighter satellites

Satellite Brightness Start Highest point End
(mag) Time Altitude Azimuth Time Altitude Azimuth Time Altitude Azimuth
SL-19 R/B 3.4 12:02:02 10° NNE 12:04:54 87° WNW 12:07:57 10° SSW
Cosmos 1092 Rocket 4.0 12:00:46 10° SSW 12:06:47 56° W 12:12:53 10° N
ERS-2 2.2 12:04:34 10° S 12:08:06 49° W 12:10:47 16° NNW
CZ-4B R/B 1.3 12:05:25 10° S 12:08:50 65° WSW 12:12:16 10° NNW
deb Chang Zheng 4 3.6 12:05:39 10° N 12:09:48 54° WNW 12:13:58 10° SSW
Cosmos 2082 Rocket 2.9 12:09:55 24° W 12:11:52 30° WNW 12:16:46 10° N
Meteor 1-31 Rocket 2.8 12:08:46 10° N 12:12:38 56° WNW 12:16:27 10° SSW
Cosmos 2369 3.9 12:08:26 10° NNW 12:13:51 48° WSW 12:19:14 10° S
Meteor 1-24 Rocket 4.0 12:09:10 10° SSW 12:14:26 43° WNW 12:19:56 10° N
Okean 1-7 Rocket 3.6 12:13:59 10° SSW 12:18:29 61° W 12:22:57 10° N
SAR-Lupe-1 4.0 12:15:21 10° SSE 12:18:57 89° W 12:22:36 10° NNW
Cosmos 2058 Rocket 3.0 12:16:36 10° N 12:21:06 81° W 12:25:32 10° S
Cosmos 1892 Rocket 4.0 12:17:51 10° SSW 12:21:51 36° W 12:25:54 10° NNW
PSLV R/B 4.4 12:20:39 10° SSE 12:24:47 65° ENE 12:28:58 10° N
SL-16 R/B 3.9 12:21:09 10° N 12:26:16 34° ENE 12:31:21 10° SE
Cosmos 2098 Rocket 4.0 12:20:12 10° S 12:26:29 72° E 12:31:30 10° NNE
Geosat 4.0 12:21:41 10° SSE 12:26:39 63° WSW 12:31:38 10° NNW
ALOS 2.9 12:23:09 10° N 12:27:17 32° WNW 12:31:22 10° SW
Gblst 52 Del rocket 4.4 12:24:23 13° WSW 12:29:23 57° NW 12:35:26 10° NE
CZ-4B R/B 3.0 12:27:49 10° N 12:31:56 64° WNW 12:36:13 10° SSW
Cosmos 1140 Rocket 3.4 12:26:58 10° SSW 12:32:06 87° WNW 12:37:15 10° NNE
Cosmos 407 Rocket 3.4 12:28:02 10° SSW 12:33:06 67° WNW 12:38:14 10° NNE
Cosmos 1655 Rocket 4.4 12:29:42 10° S 12:35:55 71° E 12:42:14 10° N
Meteor 2-8 Rocket 4.4 12:30:22 10° N 12:36:32 76° W 12:42:38 10° S
Cosmos 1697 Rocket 3.7 12:32:06 10° NW 12:36:37 25° WSW 12:41:06 10° SSW
SKYMED 2 3.5 12:33:55 10° S 12:38:14 71° WSW 12:42:34 10° NNW
SL-27 R/B 2.5 12:35:40 10° SSW 12:39:15 89° ESE 12:42:52 10° NNE
Abrixas rocket 2.4 12:38:21 11° NW 12:40:55 52° NE 12:43:41 10° ESE
Cosmos 1626 Rocket 3.6 12:40:20 10° SSW 12:44:44 66° W 12:49:12 10° N
ATLAS CENTAUR R/B 1.4 12:42:36 10° SW 12:46:27 47° WNW 12:50:09 10° NNE
Meteor 2-1 Rocket 4.4 12:42:20 10° N 12:48:05 85° E 12:53:55 10° S
Cosmos 1602 Rocket 3.6 12:43:56 10° S 12:48:21 84° W 12:52:49 10° N
ATLAS 3B R/B 4.0 12:44:55 11° W 12:48:55 17° NW 12:53:11 10° N
ADEOS Rocket 4.4 12:46:57 10° WSW 12:49:11 12° W 12:51:25 10° WNW
Cosmos 1400 Rocket 4.0 12:48:21 10° NW 12:51:21 21° W 12:54:19 10° SW
Cosmos 1300 4.3 12:49:06 10° NW 12:51:25 15° W 12:53:42 10° SW
Cosmos 1980 Rocket 3.0 12:55:18 10° NW 13:00:08 31° WSW 13:04:57 10° SSW
Cosmos 1954 Rocket 4.0 12:56:23 10° SSW 13:01:33 81° WNW 13:06:44 10° NNE
